Temperature
15 15 15 16 19 20 20 19 18 18 18 17 16 17 19 19 19 18 14 14 14 14 14 14 14 15 15 15 15 15 15 15 15 15 15 15 15 15 15 15 15 15 15 15 15 15 15 15 15
15 15 15 17 20 20 19 18 18 18 17 15 16 16 17 17 15 14 13 13 13 13 14 14 14 14 14 14 15 15 15 15 15 15 15 15 15 15 15 15 15 15 15 15 15 15 15 15 15
15 15 16 18 19 20 19 18 18 16 15 15 16 16 16 16 14 13 13 13 13 13 13 14 14 14 14 14 14 14 15 15 15 15 15 15 15 15 15 15 15 15 15 15 15 15 15 14 15
15 15 16 18 18 18 17 17 16 16 15 15 15 16 14 13 13 13 13 13 13 13 13 14 14 14 14 14 14 14 14 14 14 15 15 15 15 15 15 15 14 14 14 14 14 14 14 14 14
14 16 18 17 17 17 16 15 15 16 16 15 15 16 15 13 13 13 13 13 13 13 13 13 13 13 14 14 14 14 14 14 14 14 14 14 15 15 14 14 14 14 14 14 14 14 14 14 14
15 17 18 18 17 16 16 14 15 16 16 15 15 15 15 13 13 13 13 13 13 13 13 13 13 13 13 13 13 13 13 14 14 14 14 14 14 14 14 14 14 14 14 14 14 14 14 14 14
16 17 17 17 16 16 15 14 15 16 16 15 14 15 14 12 12 12 12 13 13 13 13 13 13 13 13 13 13 13 13 13 13 14 14 14 14 14 14 14 14 14 14 14 14 14 14 14 14
14 16 16 16 16 16 15 13 13 14 15 13 13 15 14 12 12 12 12 12 12 12 12 12 12 12 13 13 13 13 13 13 13 13 13 13 14 14 14 14 14 14 14 14 14 13 13 13 13
13 16 16 16 15 15 14 13 13 12 13 12 12 13 12 12 12 12 12 12 12 12 12 12 12 12 12 12 12 13 13 13 13 13 13 13 13 13 13 13 13 13 13 13 13 13 13 13 13
14 15 15 15 15 14 13 13 13 13 13 13 12 12 12 12 11 11 11 11 11 11 11 11 12 12 12 12 12 12 12 12 12 12 13 13 13 13 13 13 13 13 13 13 13 13 13 13 13
13 14 14 13 12 12 13 12 12 13 14 14 13 12 11 11 11 11 11 11 11 11 11 11 11 11 11 11 11 12 12 12 12 12 12 12 12 13 13 12 12 12 12 12 12 12 12 12 12
13 13 12 12 11 11 12 12 12 12 13 12 12 11 11 11 11 11 11 11 11 11 11 11 11 11 11 11 11 11 11 11 12 12 12 12 12 12 12 12 12 12 12 12 12 12 12 12 12
13 12 11 11 10 11 11 11 12 12 11 11 11 11 10 10 10 11 11 11 11 11 11 11 11 11 11 11 11 11 11 11 11 11 11 11 11 12 12 12 12 12 12 12 12 12 12 12 12
12 12 11 11 11 10 11 11 11 12 11 10 10 10 10 10 10 10 10 10 11 11 11 11 11 11 10 10 10 10 10 11 11 11 11 11 11 11 11 11 11 11 11 11 11 11 11 11 11
10 12 12 12 11 11 11 12 12 11 11 10 10 10 10 10 10 10 10 10 10 10 11 10 11 10 10 10 10 10 10 10 10 10 10 11 11 11 11 11 11 11 11 11 11 11 11 11 11
12 12 13 13 11 10 11 13 14 11 10 11 11 10 10 10 10 10 10 10 10 10 10 10 10 10 10 10 10 10 10 10 10 10 10 10 10 10 10 10 10 11 11 11 10 10 10 10 10
12 13 13 13 11 11 11 13 13 10 10 11 11 10 10 10 10 10 10 10 10 10 10 10 10 10 10 10 10 10 10 10 10 10 9 10 10 10 10 10 10 10 10 10 10 10 10 10 10
13 13 13 13 12 11 11 12 13 11 11 11 11 10 10 9 10 10 10 10 10 10 10 10 10 10 10 10 9 9 9 9 9 9 9 9 9 9 10 10 10 10 10 10 10 10 10 10 10
12 12 12 12 11 10 11 12 12 12 11 11 11 10 10 9 9 9 9 9 9 9 9 9 9 9 9 9 9 9 9 9 9 9 9 9 9 9 9 9 9 9 9 10 9 9 9 9 9
11 11 12 12 10 10 11 11 12 12 11 11 10 10 10 9 9 9 9 9 9 9 9 9 9 9 9 9 9 8 8 8 8 8 8 8 8 8 9 9 9 9 9 9 9 9 9 9 9
10 11 11 11 10 10 10 12 13 12 11 10 10 9 9 9 8 8 9 9 9 9 9 9 9 8 8 8 8 8 8 8 8 8 8 8 8 8 8 8 8 8 8 8 9 9 9 9 9
11 11 10 10 10 11 10 12 13 12 11 11 10 10 9 8 8 8 8 8 8 8 9 8 8 8 8 8 8 8 8 8 8 8 8 8 8 8 8 8 8 8 8 8 8 8 8 8 8
10 10 9 9 10 10 10 10 13 11 11 12 11 10 9 8 8 8 8 8 8 8 8 8 8 8 8 8 7 7 7 7 7 7 7 7 7 7 7 7 8 8 8 8 8 8 8 8 8
9 9 9 9 9 10 11 10 13 12 12 12 11 10 8 7 7 7 7 8 8 8 8 8 8 7 7 7 7 7 7 7 7 7 7 7 7 7 7 7 7 7 7 7 7 8 7 8 7
9 10 10 10 10 11 10 10 12 12 11 11 10 9 8 7 7 7 7 7 7 7 7 7 7 7 7 7 7 7 7 7 7 6 6 6 6 7 7 7 7 7 7 7 7 7 7 7 7
9 10 10 11 11 12 9 10 12 11 10 9 8 8 7 7 7 6 7 7 7 7 7 7 7 7 7 7 6 6 6 6 6 6 6 6 6 7 7 6 6 6 6 7 6 6 7 7 7
9 9 10 10 9 9 11 11 11 10 9 9 8 8 7 7 6 6 6 6 7 7 7 7 7 7 7 6 6 6 6 6 6 6 6 6 6 6 6 6 6 6 6 6 6 6 6 6 6
8 8 8 9 9 10 11 11 12 11 10 9 9 8 7 7 6 6 6 6 6 6 6 6 6 6 6 6 6 6 6 6 6 5 5 5 5 5 6 6 6 6 6 6 6 6 6 6 6
7 7 8 9 9 10 10 12 11 11 10 10 9 8 7 7 6 6 6 6 6 6 6 6 6 6 6 6 6 5 5 5 5 5 5 5 5 5 5 5 5 5 5 5 5 5 5 5 6
7 8 7 8 8 8 9 11 10 9 9 8 8 7 6 6 6 6 5 5 5 5 5 5 5 5 5 5 5 5 5 5 5 4 4 4 4 4 4 4 4 5 5 5 5 5 5 5 5
Wind_Speed
2 0 1 2 3 3 5 3 2 3 2 1 1 2 2 2 2 1 3 3 2 1 2 3 2 4 4 4 4 4 4 4 4 4 5 5 6 7 7 7 8 9 9 10 10 10 11 12 12
1 1 2 2 4 5 4 4 5 3 1 0 1 2 2 2 2 2 1 3 1 1 2 2 3 4 4 4 4 3 3 3 3 4 4 5 5 6 7 7 7 8 9 9 10 10 11 12 12
1 1 1 2 3 4 2 3 3 2 1 2 2 1 2 0 1 1 2 2 0 2 2 2 2 3 3 3 3 3 3 3 3 4 4 4 5 6 7 7 7 8 9 9 10 11 11 11 12
1 2 2 2 4 2 1 2 2 3 2 2 2 2 1 1 1 1 2 1 1 1 1 2 1 2 3 3 3 3 3 3 3 3 4 4 4 6 6 7 7 8 9 9 10 10 11 11 11
0 2 3 3 3 2 2 1 2 4 3 2 3 3 2 1 1 1 1 1 1 1 1 2 2 2 2 2 3 3 3 3 3 4 4 3 4 5 6 8 8 7 8 9 9 10 11 11 11
2 2 3 4 4 2 2 3 4 4 3 2 3 3 2 2 1 1 1 1 1 1 0 1 2 1 1 1 2 3 3 3 3 4 4 3 3 4 6 8 8 8 8 9 9 10 10 10 11
2 2 2 3 3 3 2 3 4 4 5 3 2 3 2 2 0 1 0 0 1 0 0 1 2 2 2 2 1 1 2 2 2 3 4 4 4 4 6 8 8 8 8 9 9 9 10 10 10
1 2 3 3 4 3 3 3 2 4 3 1 3 4 3 1 0 1 1 1 1 1 1 1 1 2 2 3 2 2 2 2 2 3 3 4 4 5 6 7 8 8 8 9 9 9 10 11 11
1 3 4 4 4 2 4 4 2 2 3 2 3 4 2 1 1 2 2 2 2 2 2 2 2 1 2 3 3 3 3 2 3 3 3 5 6 6 7 7 8 8 8 9 9 9 10 10 10
2 3 3 2 2 2 3 3 3 3 5 5 5 5 3 2 3 4 4 5 4 4 3 3 2 2 2 2 2 3 2 3 3 3 4 5 5 5 5 6 8 8 9 10 10 10 10 9 8
2 3 2 2 2 2 3 3 3 5 6 7 7 6 5 5 5 6 6 6 6 5 4 3 3 3 3 2 2 2 2 2 2 3 4 4 4 5 5 5 6 7 9 8 9 10 8 7 6
2 2 3 2 3 3 3 3 4 7 7 5 6 6 5 6 6 7 7 7 6 6 5 5 4 3 3 3 2 2 2 1 1 2 4 3 3 3 3 4 5 6 6 6 6 5 6 6 7
4 2 2 3 3 4 4 6 6 9 9 6 5 5 6 6 6 6 6 7 7 6 6 5 4 4 3 3 2 2 2 2 2 2 3 4 3 3 3 3 4 5 6 6 5 6 6 6 6
2 3 3 3 5 3 5 7 6 9 6 6 6 6 6 6 6 6 6 6 6 7 6 5 5 5 4 4 3 3 2 3 2 2 3 4 4 3 3 4 4 4 5 6 6 6 5 5 5
2 2 4 5 5 3 4 7 8 8 4 6 6 6 6 6 6 6 6 6 6 6 5 5 5 5 5 5 4 3 3 3 3 3 4 5 5 4 4 3 4 4 6 6 6 7 5 4 5
3 3 4 3 3 3 5 9 4 3 6 7 7 6 6 6 6 6 6 6 5 5 4 4 3 4 5 4 4 3 3 3 3 3 3 4 5 5 4 4 4 4 5 5 5 5 5 5 4
4 5 5 3 3 3 6 9 4 2 5 8 7 7 6 6 6 6 5 6 5 5 4 3 3 3 4 4 4 3 3 3 3 3 3 3 5 5 4 3 3 5 4 5 6 5 5 5 4
5 5 5 6 2 5 8 12 10 7 7 8 7 7 6 7 7 5 4 4 4 3 3 3 3 3 3 3 3 2 2 2 2 2 3 4 4 5 4 3 4 4 4 4 5 6 5 5 4
4 6 8 6 3 5 11 14 13 9 8 8 8 7 7 7 6 4 3 3 2 2 3 3 3 3 3 3 3 3 3 2 2 2 3 3 4 5 4 3 4 4 4 5 6 5 6 5 4
7 8 8 6 3 5 10 15 12 10 9 8 8 7 7 6 4 3 2 2 3 3 3 3 3 3 4 3 3 3 2 2 2 2 2 3 4 4 4 5 4 4 4 6 7 6 5 4 4
9 9 8 6 4 6 8 9 7 5 6 6 7 7 6 5 5 3 2 2 2 3 3 3 4 4 4 4 3 3 2 2 2 2 2 3 4 4 4 5 5 5 5 6 7 8 6 6 4
8 7 8 7 6 4 3 6 5 4 5 5 5 4 4 4 4 3 2 2 2 3 3 3 3 4 3 3 4 5 4 4 4 3 3 3 3 4 4 5 5 5 5 7 8 7 6 7 6
5 3 6 7 7 6 6 6 6 3 5 5 4 3 3 2 2 2 2 2 2 2 2 3 3 3 3 3 4 5 5 4 3 3 3 3 3 3 4 4 5 5 5 6 7 7 6 6 6
3 2 3 4 5 7 7 8 6 5 5 3 2 2 1 1 1 1 1 1 0 0 1 2 3 3 3 4 4 5 5 5 4 4 3 3 3 3 4 4 4 5 5 6 6 6 7 6 6
5 3 3 4 5 6 4 7 8 4 4 4 3 2 1 1 1 1 1 1 1 1 1 2 3 3 3 4 4 5 5 5 5 5 4 3 3 3 4 4 4 4 5 6 6 6 6 7 7
7 7 5 5 6 5 4 8 5 2 2 3 2 2 1 1 1 1 1 2 1 1 2 2 3 3 3 4 4 4 4 3 3 4 4 4 4 4 4 4 5 5 5 6 6 5 6 7 7
5 7 5 5 5 6 7 6 6 3 3 2 2 1 2 2 2 2 2 2 2 2 2 3 3 3 4 4 4 4 4 4 4 4 3 3 3 3 4 4 4 4 5 6 6 6 7 7 7
3 3 4 5 5 8 8 8 6 6 4 3 2 2 3 3 3 3 3 3 3 3 3 3 3 4 4 4 4 3 4 4 4 3 3 3 3 3 4 4 4 4 4 5 5 5 6 7 6
5 5 5 5 6 6 8 6 2 4 3 2 2 2 3 4 4 4 4 3 3 3 3 3 3 3 3 4 4 4 4 4 4 4 4 3 3 3 4 4 4 5 5 5 5 5 6 6 6
6 6 6 6 6 7 8 7 2 1 2 3 4 4 4 4 4 4 4 4 3 3 3 3 3 3 4 4 4 4 4 4 4 4 4 3 3 3 4 4 5 5 5 5 6 6 5 6 6
Wind_Direction
11 10 218 207 191 203 220 197 189 174 184 197 260 246 238 235 257 53 59 40 47 120 135 143 137 133 129 130 124 121 116 122 135 144 145 149 152 154 153 153 152 146 142 136 134 133 129 127 125
1 244 193 201 218 216 207 191 195 189 118 167 203 225 223 227 19 38 49 16 19 104 135 151 134 141 132 128 123 124 125 121 131 143 144 153 159 162 159 152 154 150 143 138 134 134 133 132 129
90 3 185 183 209 231 187 164 194 181 180 200 185 224 253 238 58 35 19 352 63 113 125 123 118 148 145 141 138 139 147 143 147 148 155 162 170 169 162 156 151 145 142 139 138 137 137 135 132
207 153 160 195 197 219 206 130 160 183 184 212 212 198 183 34 347 358 15 46 127 114 118 103 91 154 147 145 158 163 166 172 175 168 167 175 178 176 166 154 146 141 141 145 143 140 142 139 137
163 185 182 198 213 188 195 212 195 203 197 200 218 221 196 126 6 18 37 69 104 98 112 124 96 157 163 160 168 176 188 191 194 195 182 178 177 174 166 154 147 145 146 145 145 143 144 143 140
162 191 203 214 205 188 206 207 205 220 212 210 223 226 207 117 82 23 32 45 50 59 27 157 134 121 146 160 189 197 204 207 206 206 193 183 181 169 159 153 151 151 155 153 150 149 147 146 142
185 181 203 202 202 211 197 192 218 223 219 214 224 215 197 176 37 317 268 339 9 17 345 262 181 155 143 145 167 190 204 220 220 217 200 189 185 177 170 162 158 158 158 156 154 154 155 148 144
175 172 179 198 211 216 164 180 230 236 237 213 217 229 225 219 289 267 256 262 255 253 254 250 216 194 198 193 191 202 209 203 218 218 203 200 192 183 174 172 166 165 164 158 155 151 150 146 142
192 200 210 203 202 185 166 190 193 238 230 217 228 259 308 330 223 236 251 254 256 253 246 251 250 225 223 214 198 198 196 195 204 208 193 200 206 195 184 177 168 167 165 161 157 150 142 138 140
194 208 215 185 184 172 179 212 209 215 229 236 240 249 264 250 233 232 240 246 250 253 245 239 241 239 225 220 212 221 216 210 212 212 204 210 208 194 181 164 166 166 165 162 157 148 146 152 152
182 208 184 193 196 199 204 225 224 235 242 244 249 255 250 247 241 242 243 245 246 249 246 238 235 234 226 226 226 236 232 223 221 209 203 206 198 182 168 167 166 171 169 166 156 160 165 167 162
175 209 208 194 185 200 226 235 235 239 252 278 266 264 247 242 244 246 250 251 247 244 242 237 230 233 232 236 238 236 233 232 226 210 193 192 190 184 177 172 174 176 178 169 168 168 166 166 166
201 206 207 220 217 233 246 250 259 259 260 270 265 249 245 250 255 255 258 259 250 246 242 236 229 227 229 229 239 234 229 233 221 205 189 189 189 193 183 176 170 174 172 168 164 162 162 162 161
191 210 240 249 237 233 246 259 255 262 262 252 245 248 252 254 257 259 255 259 257 249 246 242 231 227 225 222 223 233 231 220 206 204 197 190 187 185 186 183 174 173 175 173 166 161 161 160 156
163 225 252 239 234 232 246 257 237 251 251 249 248 252 256 260 261 257 258 260 263 259 250 244 235 231 226 224 224 228 225 214 201 202 201 194 185 181 181 185 182 177 175 170 163 159 160 159 157
196 226 248 208 211 203 227 262 247 245 243 254 256 256 259 262 262 259 261 261 264 260 254 249 242 235 227 224 226 226 219 210 198 197 198 190 182 181 179 180 184 174 171 165 163 163 162 163 165
210 239 251 242 201 205 227 264 270 267 255 261 263 262 261 266 271 267 262 259 258 254 246 246 242 236 230 224 223 224 214 206 195 188 186 187 182 178 174 173 176 173 171 172 167 167 166 165 158
231 239 247 251 211 225 246 262 273 273 263 263 268 266 264 267 271 272 264 255 250 249 247 246 236 233 229 222 220 215 212 208 193 190 194 188 182 175 167 160 168 169 172 173 168 162 160 161 152
245 246 259 262 249 254 261 271 276 272 261 259 261 264 267 271 276 272 259 248 237 231 231 233 228 219 210 210 213 213 217 211 202 193 191 192 187 177 169 167 168 175 179 176 170 159 156 156 146
235 251 261 268 246 257 279 279 275 262 250 254 259 263 268 273 279 280 263 227 216 217 217 218 220 217 209 206 206 214 219 218 211 197 197 192 197 190 183 178 175 179 181 176 173 170 164 161 166
234 239 254 270 287 249 285 277 249 237 238 249 253 259 267 265 268 271 256 235 225 222 222 216 218 218 210 205 196 192 193 205 203 196 203 207 204 198 195 185 177 181 187 183 182 183 179 175 178
243 236 246 256 266 263 263 283 255 234 245 247 253 252 259 261 263 262 256 250 237 237 232 228 225 219 215 206 197 194 200 208 219 214 206 209 209 203 199 193 186 186 192 191 189 190 189 182 181
240 233 235 243 246 263 232 250 261 222 243 247 244 246 255 262 264 265 264 259 249 243 231 228 222 218 217 211 207 206 212 215 212 207 199 201 206 207 200 197 191 189 194 195 195 188 193 193 189
193 173 192 213 228 249 228 228 259 217 228 241 231 227 244 267 270 284 331 340 273 259 238 228 218 222 218 210 211 212 214 208 200 202 200 202 204 210 207 198 194 196 197 196 197 194 199 200 195
194 211 233 224 224 242 187 228 250 231 227 236 244 236 266 289 273 294 334 328 297 263 242 226 218 224 222 213 215 215 217 213 208 207 206 204 207 211 209 205 203 202 199 196 196 196 204 203 198
208 216 226 247 253 257 209 237 245 222 230 237 254 251 261 300 291 283 285 282 271 258 251 233 224 225 225 221 219 215 214 215 211 210 212 213 218 217 205 210 212 208 200 196 197 201 207 209 204
201 216 245 262 267 262 244 248 267 203 194 203 222 262 299 303 295 281 273 273 272 257 254 242 231 228 224 218 212 210 208 207 207 209 212 215 221 224 209 213 214 210 204 200 200 206 208 208 204
246 210 203 219 242 252 252 243 232 196 182 179 211 270 294 299 292 282 271 270 269 254 245 238 233 232 225 216 207 206 204 204 203 205 210 209 215 219 213 215 215 208 204 202 203 209 209 205 203
201 200 220 230 247 252 261 251 196 192 188 217 264 294 292 281 274 268 268 269 263 253 240 228 223 229 225 217 208 203 198 198 196 197 207 210 214 215 212 215 214 207 202 202 206 209 206 206 202
226 219 210 233 241 242 260 265 103 190 286 292 300 303 298 288 281 272 266 264 261 253 243 227 220 224 224 214 208 209 200 192 193 193 197 201 211 216 218 216 214 212 206 203 208 207 206 208 205
Height
1510 1510 1512 1514 1514 1511 1510 1511 1513 1515 1516 1518 1519 1518 1516 1515 1516 1521 1521 1518 1519 1520 1520 1521 1522 1523 1523 1524 1525 1526 1526 1527 1528 1528 1529 1530 1530 1531 1532 1532 1533 1534 1534 1535 1535 1536 1536 1537 1537
1510 1511 1514 1514 1509 1508 1510 1511 1514 1515 1518 1519 1519 1519 1518 1518 1519 1520 1518 1518 1518 1519 1520 1520 1521 1522 1523 1524 1524 1525 1526 1526 1527 1528 1528 1529 1530 1530 1531 1532 1533 1533 1534 1535 1535 1536 1536 1537 1538
1511 1512 1515 1512 1509 1506 1508 1512 1514 1517 1519 1519 1519 1519 1519 1519 1519 1519 1518 1517 1518 1519 1520 1520 1521 1522 1522 1523 1524 1524 1525 1526 1526 1527 1528 1528 1529 1530 1530 1531 1532 1533 1533 1534 1535 1535 1536 1537 1538
1512 1514 1515 1512 1510 1511 1512 1514 1516 1517 1519 1519 1519 1518 1519 1519 1519 1518 1517 1517 1518 1519 1519 1519 1520 1521 1522 1522 1523 1524 1524 1525 1525 1526 1526 1527 1528 1529 1530 1530 1531 1532 1533 1534 1535 1535 1536 1537 1538
1512 1513 1512 1511 1511 1513 1515 1517 1518 1516 1517 1518 1518 1517 1518 1518 1517 1516 1516 1517 1517 1518 1518 1518 1519 1520 1520 1521 1522 1522 1523 1523 1524 1525 1525 1526 1527 1528 1529 1529 1530 1531 1532 1533 1534 1535 1536 1537 1538
1513 1512 1509 1509 1510 1514 1515 1517 1517 1516 1516 1518 1518 1517 1517 1517 1516 1516 1516 1516 1516 1516 1517 1517 1518 1518 1519 1520 1520 1520 1521 1522 1522 1523 1524 1525 1525 1526 1527 1528 1529 1530 1531 1532 1533 1534 1536 1537 1538
1513 1510 1509 1509 1511 1513 1515 1517 1516 1515 1515 1517 1517 1516 1516 1516 1515 1515 1515 1515 1515 1515 1515 1515 1516 1516 1517 1518 1518 1519 1519 1520 1521 1521 1522 1523 1524 1525 1526 1527 1528 1529 1530 1531 1533 1534 1535 1536 1537
1512 1512 1511 1511 1511 1511 1515 1516 1516 1516 1515 1517 1517 1515 1514 1515 1513 1513 1513 1513 1513 1513 1513 1513 1514 1514 1515 1516 1516 1517 1517 1518 1518 1519 1520 1521 1522 1523 1524 1525 1526 1527 1529 1530 1532 1533 1534 1535 1537
1512 1512 1509 1509 1510 1511 1515 1515 1516 1516 1516 1515 1515 1514 1514 1513 1512 1512 1512 1512 1511 1511 1511 1511 1511 1512 1512 1513 1514 1514 1515 1515 1516 1517 1517 1518 1520 1521 1522 1523 1524 1526 1528 1529 1530 1532 1533 1535 1536
1512 1510 1508 1511 1512 1512 1514 1515 1515 1515 1514 1513 1513 1512 1511 1511 1510 1510 1510 1509 1509 1509 1509 1509 1509 1510 1510 1511 1511 1512 1512 1513 1513 1514 1515 1516 1517 1518 1520 1521 1523 1524 1526 1528 1529 1530 1532 1534 1535
1512 1510 1511 1513 1514 1514 1514 1514 1514 1513 1510 1510 1510 1510 1509 1509 1508 1508 1507 1507 1507 1507 1507 1507 1507 1507 1508 1508 1509 1509 1509 1510 1510 1511 1512 1513 1514 1516 1517 1519 1521 1522 1524 1526 1527 1529 1530 1532 1533
1512 1512 1513 1513 1514 1514 1514 1513 1513 1511 1509 1508 1508 1508 1507 1507 1506 1505 1505 1505 1504 1504 1504 1504 1504 1505 1505 1506 1506 1506 1507 1507 1507 1508 1509 1510 1512 1513 1514 1516 1518 1520 1522 1523 1525 1526 1528 1530 1532
1511 1512 1513 1513 1513 1513 1513 1512 1511 1507 1507 1506 1505 1505 1504 1504 1503 1503 1502 1502 1502 1501 1501 1501 1502 1502 1502 1503 1503 1504 1504 1504 1504 1505 1506 1507 1509 1510 1512 1513 1515 1517 1519 1521 1523 1524 1526 1528 1530
1511 1511 1512 1512 1512 1512 1511 1509 1509 1503 1504 1503 1503 1502 1501 1500 1500 1499 1499 1498 1498 1498 1498 1499 1499 1499 1500 1500 1500 1501 1502 1502 1502 1503 1503 1505 1506 1507 1509 1511 1513 1514 1516 1518 1520 1522 1524 1526 1528
1512 1511 1509 1509 1509 1509 1510 1505 1502 1500 1501 1500 1500 1499 1498 1498 1497 1496 1495 1495 1495 1495 1495 1496 1496 1496 1497 1497 1497 1498 1499 1499 1500 1500 1501 1502 1503 1505 1506 1508 1510 1512 1514 1516 1518 1520 1522 1524 1526
1510 1507 1504 1504 1507 1508 1509 1497 1496 1498 1498 1497 1497 1496 1496 1495 1494 1493 1493 1492 1492 1492 1492 1492 1493 1493 1494 1495 1495 1495 1496 1497 1497 1498 1499 1500 1501 1502 1504 1505 1508 1510 1512 1514 1515 1517 1520 1522 1524
1505 1501 1499 1501 1504 1505 1504 1495 1495 1496 1496 1494 1494 1493 1493 1492 1491 1490 1490 1490 1489 1489 1489 1489 1490 1490 1491 1492 1492 1493 1493 1494 1495 1495 1496 1497 1499 1500 1501 1503 1505 1507 1509 1511 1513 1514 1517 1519 1521
1498 1498 1499 1498 1500 1503 1500 1494 1492 1494 1493 1492 1491 1490 1490 1489 1488 1488 1487 1487 1486 1486 1486 1487 1487 1488 1488 1489 1490 1490 1491 1491 1492 1493 1494 1495 1496 1497 1499 1500 1502 1504 1507 1508 1510 1512 1514 1517 1519
1500 1499 1497 1497 1501 1501 1495 1491 1488 1489 1489 1488 1488 1487 1486 1486 1486 1485 1484 1483 1483 1483 1483 1484 1484 1485 1485 1486 1486 1487 1487 1488 1489 1490 1491 1492 1493 1494 1496 1498 1499 1501 1504 1505 1507 1509 1511 1514 1516
1502 1499 1496 1497 1501 1500 1493 1488 1484 1484 1484 1485 1484 1483 1483 1483 1482 1482 1481 1481 1481 1481 1481 1481 1482 1482 1482 1482 1483 1484 1485 1486 1487 1487 1488 1489 1490 1492 1493 1495 1496 1499 1501 1503 1504 1507 1508 1510 1513
1500 1498 1496 1497 1498 1498 1495 1481 1477 1479 1481 1481 1481 1480 1480 1480 1479 1479 1479 1479 1479 1479 1479 1479 1479 1479 1479 1480 1480 1481 1482 1483 1484 1485 1485 1487 1488 1489 1490 1492 1493 1496 1498 1500 1502 1504 1505 1507 1510
1495 1496 1498 1498 1496 1489 1493 1482 1471 1474 1476 1476 1477 1477 1477 1477 1477 1477 1476 1476 1476 1476 1476 1477 1477 1476 1476 1477 1477 1478 1479 1479 1481 1482 1483 1484 1485 1486 1488 1489 1491 1493 1495 1497 1499 1501 1503 1505 1506
1494 1496 1497 1497 1495 1492 1489 1488 1469 1473 1472 1471 1473 1474 1474 1475 1475 1474 1474 1474 1474 1474 1474 1474 1474 1474 1474 1474 1475 1475 1476 1477 1479 1479 1480 1481 1482 1483 1485 1486 1488 1490 1492 1494 1496 1498 1500 1502 1503
1497 1497 1497 1496 1494 1490 1481 1483 1466 1466 1467 1467 1470 1472 1472 1473 1473 1473 1472 1472 1472 1472 1472 1472 1471 1471 1472 1472 1472 1473 1474 1475 1476 1476 1477 1478 1479 1480 1481 1483 1485 1487 1489 1491 1493 1494 1496 1498 1500
1495 1492 1489 1488 1485 1476 1481 1481 1467 1462 1466 1467 1469 1470 1471 1471 1471 1471 1470 1470 1470 1469 1469 1469 1469 1469 1469 1469 1470 1471 1471 1472 1473 1473 1474 1475 1476 1477 1478 1479 1481 1483 1485 1487 1489 1490 1492 1494 1496
1490 1487 1485 1482 1475 1470 1481 1474 1462 1464 1466 1467 1469 1469 1470 1470 1469 1469 1469 1468 1468 1467 1467 1467 1467 1467 1467 1467 1467 1468 1469 1469 1470 1471 1471 1472 1473 1474 1475 1477 1479 1480 1482 1484 1485 1487 1488 1490 1492
1489 1487 1485 1483 1482 1480 1467 1464 1462 1463 1464 1466 1467 1467 1468 1468 1468 1467 1467 1466 1466 1465 1465 1465 1464 1464 1464 1465 1465 1465 1466 1467 1467 1468 1469 1469 1470 1471 1472 1474 1476 1477 1478 1480 1482 1483 1484 1486 1488
1490 1488 1488 1485 1480 1471 1460 1460 1455 1458 1460 1463 1464 1465 1466 1466 1466 1465 1465 1465 1464 1464 1463 1463 1463 1462 1462 1462 1462 1463 1463 1464 1465 1465 1466 1466 1467 1468 1469 1471 1472 1473 1475 1477 1478 1479 1480 1482 1484
1490 1490 1485 1481 1477 1471 1462 1455 1453 1455 1458 1460 1462 1463 1464 1464 1464 1464 1463 1463 1462 1462 1461 1461 1460 1460 1459 1459 1460 1460 1460 1461 1462 1462 1463 1464 1465 1465 1466 1467 1469 1470 1472 1473 1474 1475 1477 1478 1480
1485 1484 1484 1483 1478 1476 1468 1459 1456 1457 1458 1460 1461 1462 1462 1462 1462 1461 1461 1460 1459 1459 1458 1458 1457 1457 1457 1457 1457 1457 1458 1458 1459 1459 1460 1461 1462 1463 1464 1465 1466 1467 1468 1469 1471 1472 1473 1474 1476